Philadelphia, PA

2:02 AM EST on November 18, 2019 (GMT -0500)
Philadelphia International

Weather History for KPHL - May, 2019

Change the Weather History Date:

Thursday, May 30, 2019

  Actual Average Record
Temperature  
Mean Temperature 77 °F 68 °F  
Max Temperature 84 °F 78 °F 97 °F (1991)
Min Temperature 69 °F 59 °F 41 °F (1961)
Degree Days  
Heating Degree Days 0 1  
Month to date heating degree days 74 110  
Since 1 July heating degree days 4359 4600  
Cooling Degree Days 12 5  
Month to date cooling degree days 116 72  
Year to date cooling degree days 140 85  
Growing Degree Days 26 (Base 50)    
Moisture  
Dew Point 67 °F    
Average Humidity 74    
Maximum Humidity 93    
Minimum Humidity 55    
Precipitation  
Precipitation 0.09 in 0.13 in 1.74 in (1908)
Month to date precipitation 5.22 3.58  
Year to date precipitation 19.28 16.61  
Snow  
Snow 0.00 in 0.00 in 0.00 in ()
Month to date snowfall 0.0 0.0  
Since 1 July snowfall 17.1 22.4  
Snow Depth 0.00 in    
Sea Level Pressure  
Sea Level Pressure 29.73 in    
Wind  
Wind Speed 8 mph (SW)    
Max Wind Speed 20 mph    
Max Gust Speed 26 mph    
Visibility 9 miles    
Events Rain , Thunderstorm    
T = Trace of Precipitation, MM = Missing Value Source: NWS Daily Summary

Daily Weather History Graph

Daily Weather History Graph

Search for Another Location

Airport or City:

Astronomy

May. 30, 2019 Rise Set
Actual Time 5:35 AM EDT 8:21 PM EDT
Civil Twilight 5:03 AM EDT 8:53 PM EDT
Nautical Twilight 4:23 AM EDT 9:33 PM EDT
Astronomical Twilight 3:38 AM EDT 10:19 PM EDT
Moon 3:39 AM EDT (5/30) 4:27 PM EDT (5/30)
Length of Visible Light 15h 49m
Length of Day
14h 46m
Waning Crescent, 15% of the Moon is Illuminated
May 30
Waning Crescent
Jun 3
New
Jun 10
First Quarter
Jun 17
Full
Jun 25
Last Quarter

Hourly Weather History & Observations

Time (EDT) Temp. Heat Index Dew Point Humidity Pressure Visibility Wind Dir Wind Speed Gust Speed Precip Events Conditions
12:54 AM 70.0 °F - 66.9 °F 90% 29.74 in 10.0 mi SW 4.6 mph - N/A   Overcast
1:54 AM 69.1 °F - 66.9 °F 93% 29.74 in 10.0 mi WSW 8.1 mph - N/A   Mostly Cloudy
2:54 AM 69.1 °F - 66.9 °F 93% 29.75 in 10.0 mi WSW 6.9 mph - N/A   Mostly Cloudy
3:01 AM 69.1 °F - 66.9 °F 93% 29.75 in 7.0 mi WSW 5.8 mph - N/A   Mostly Cloudy
3:54 AM 70.0 °F - 66.0 °F 87% 29.76 in 9.0 mi West 4.6 mph - N/A   Scattered Clouds
4:24 AM 69.1 °F - 66.0 °F 90% 29.76 in 10.0 mi WSW 3.5 mph - N/A   Mostly Cloudy
4:54 AM 70.0 °F - 66.0 °F 87% 29.75 in 10.0 mi Calm Calm - 0.00 in Rain Light Rain
5:54 AM 70.0 °F - 66.0 °F 87% 29.76 in 10.0 mi SW 3.5 mph - 0.00 in   Mostly Cloudy
6:54 AM 71.1 °F - 66.0 °F 84% 29.78 in 10.0 mi Variable 3.5 mph - N/A   Mostly Cloudy
7:54 AM 73.0 °F - 64.9 °F 76% 29.80 in 10.0 mi WNW 6.9 mph - N/A   Scattered Clouds
8:54 AM 75.9 °F - 64.9 °F 69% 29.80 in 10.0 mi Variable 3.5 mph - N/A   Mostly Cloudy
9:54 AM 78.1 °F - 63.0 °F 60% 29.78 in 10.0 mi Variable 5.8 mph - N/A   Scattered Clouds
10:54 AM 80.1 °F 81.7 °F 64.0 °F 58% 29.78 in 10.0 mi South 4.6 mph - N/A   Scattered Clouds
11:54 AM 81.0 °F 82.5 °F 64.0 °F 56% 29.78 in 10.0 mi SW 6.9 mph - N/A   Overcast
12:54 PM 82.0 °F 83.8 °F 64.9 °F 56% 29.77 in 10.0 mi SSW 8.1 mph - N/A   Mostly Cloudy
1:54 PM 82.9 °F 85.0 °F 66.0 °F 56% 29.73 in 10.0 mi SSW 9.2 mph - N/A   Mostly Cloudy
2:54 PM 84.0 °F 86.3 °F 66.0 °F 55% 29.71 in 10.0 mi South 11.5 mph 24.2 mph N/A   Mostly Cloudy
3:54 PM 82.9 °F 85.0 °F 66.0 °F 56% 29.68 in 10.0 mi SSW 12.7 mph - 0.00 in Rain Light Rain
4:35 PM 82.0 °F 84.5 °F 66.9 °F 60% 29.67 in 10.0 mi SSW 15.0 mph - 0.00 in Thunderstorm Thunderstorm
4:44 PM 81.0 °F 83.3 °F 66.9 °F 62% 29.67 in 5.0 mi South 17.3 mph - 0.00 in Rain , Thunderstorm Light Thunderstorms and Rain
4:48 PM 80.6 °F 83.2 °F 68.0 °F 65% 29.68 in 3.0 mi SSW 19.6 mph 25.3 mph 0.00 in Rain , Thunderstorm Thunderstorms and Rain
4:54 PM 78.1 °F - 69.1 °F 74% 29.68 in 3.0 mi SSW 16.1 mph 25.3 mph 0.02 in Rain , Thunderstorm Thunderstorms and Rain
5:07 PM 77.0 °F - 69.1 °F 76% 29.70 in 5.0 mi SSW 11.5 mph - 0.01 in Rain , Thunderstorm Light Thunderstorms and Rain
5:20 PM 75.0 °F - 69.1 °F 82% 29.71 in 5.0 mi WSW 16.1 mph - 0.05 in Rain Rain
5:32 PM 75.0 °F - 69.1 °F 82% 29.70 in 7.0 mi SW 13.8 mph - 0.07 in Rain Light Rain
5:54 PM 73.0 °F - 68.0 °F 84% 29.70 in 10.0 mi SSW 12.7 mph - 0.07 in Rain Light Rain
6:54 PM 71.1 °F - 68.0 °F 90% 29.69 in 10.0 mi SSW 6.9 mph - 0.00 in   Overcast
7:54 PM 72.0 °F - 69.1 °F 91% 29.69 in 10.0 mi WSW 9.2 mph - N/A   Overcast
8:26 PM 72.0 °F - 69.1 °F 91% 29.69 in 8.0 mi WSW 9.2 mph - N/A   Overcast
8:54 PM 72.0 °F - 70.0 °F 93% 29.70 in 8.0 mi WSW 10.4 mph - N/A   Overcast
9:25 PM 72.0 °F - 69.1 °F 91% 29.71 in 10.0 mi WSW 9.2 mph - N/A   Overcast
9:54 PM 72.0 °F - 69.1 °F 91% 29.72 in 10.0 mi WSW 5.8 mph - N/A   Overcast
10:54 PM 72.0 °F - 70.0 °F 93% 29.71 in 10.0 mi SSW 5.8 mph - 0.00 in Rain Light Rain
11:54 PM 72.0 °F - 69.1 °F 91% 29.68 in 10.0 mi SSW 9.2 mph - 0.00 in   Overcast